Regional Weather Roundup
Issued by NWS

Home | Current Version | Previous Version | Text Only | Print | Product List | Glossary On
Versions: 1 2 3 4 5 6 7 8 9 10 11 12 13 14 15 16 17 18 19 20 21 22 23 24 25 26 27 28 29 30 31 32 33 34 35 36 37 38 39 40 41 42 43 44 45 46 47 48 49 50
000
ASMX46 KSGX 301504
RWRMX

MEXICAN WEATHER ROUNDUP
NATIONAL WEATHER SERVICE SAN DIEGO CA
800 AM PDT SUN APR 30 2017

BAJA CALIFORNIA

CITY           SKY/WX    TMP DP  RH WIND       PRES   REMARKS
ENSENADA NW      N/A     71  32  23 E1        30.02S
LA PAZ         PTSUNNY   68  55  64 CALM      29.99R
LORETO         SUNNY     75  54  46 N18       29.96S
MEXICALI       SUNNY     68  16  13 W3        30.04R
S.J. DEL CABO  SUNNY     75  59  57 NW12      29.97R
TIJUANA        SUNNY     66  18  15 SE5       30.09R

NORTHWESTERN MEXICO

CITY           SKY/WX    TMP DP  RH WIND       PRES   REMARKS
CHIHUAHUA      SUNNY     63  28  27 CALM      30.18S
CULIACAN       MOSUNNY   75  64  69 CALM      29.96R
GUAYMAS        SUNNY     73  43  33 CALM      29.93R
HERMOSILLO     SUNNY     70  32  24 CALM      30.02R
JUAREZ         SUNNY     54  36  50 SW12      30.01R
LOS MOCHIS     SUNNY     73  61  64 CALM      29.96R
OBREGON        SUNNY     73  52  46 N3        29.95R

NORTHEASTERN MEXICO

CITY           SKY/WX    TMP DP  RH WIND       PRES   REMARKS
MATAMOROS      SUNNY     73  45  35 N14       29.95R
MONCLOVA         N/A    N/A N/A N/A MISG        N/A
MONTERREY      MOSUNNY   73  28  19 NW9       30.00R
NUEVO LAREDO   SUNNY     64  36  34 N18       30.03R
PIEDRAS NEGRAS   N/A    N/A N/A N/A MISG        N/A
REYNOSA        SUNNY     73  30  20 N9G21     29.97R
SALTILLO       SUNNY     68  52  56 CALM      30.16S
TORREON        SUNNY     68  23  18 NW12      30.14R
VICTORIA       SUNNY     75  28  17 NW13      29.99R

WESTERN MEXICO

CITY           SKY/WX    TMP DP  RH WIND       PRES   REMARKS
AGUASCALIENTES SUNNY     68  28  22 S5        30.27R
COLIMA         MOSUNNY   75  54  46 CALM      30.04S
DURANGO        SUNNY     63  27  25 SW9       30.22R
GUADALAJARA    SUNNY     68  39  34 SE3       30.19S
MANZANILLO     SUNNY     77  68  73 N6        29.92R
MAZATLAN       SUNNY     79  64  61 CALM      29.95R
PTO. VALLARTA  SUNNY     77  64  65 CALM      29.94R
TEPIC          SUNNY     59  55  88 CALM      30.06R
URUAPAN        SUNNY     68  43  40 CALM      30.17S
ZACATECAS        N/A    N/A N/A N/A MISG        N/A

CENTRAL MEXICO

CITY           SKY/WX    TMP DP  RH WIND       PRES   REMARKS
CUERNAVACA     SUNNY     77  50  38 SE5       30.12R
LEON           SUNNY     70  32  24 CALM      30.31R
MEXICO CITY    SUNNY     70  23  17 SE5       30.31F
MORELIA        SUNNY     63  36  36 CALM      30.25R
POZA RICA      PTSUNNY   79  70  73 N21       29.86R
PUEBLA         SUNNY     66  34  30 NE5       30.32S
QUERETARO      SUNNY     66  28  24 NW6       30.30S
S. LUIS POTOSI SUNNY     70  18  13 SE12      30.21R
TAMPICO        SUNNY     81  39  22 NE23G35   29.90R
TOLUCA         SUNNY     59  28  31 CALM      30.41
VERACRUZ       SUNNY     84  64  51 SW6       29.74R

SOUTHERN MEXICO

CITY           SKY/WX    TMP DP  RH WIND       PRES   REMARKS
ACAPULCO       SUNNY     81  72  74 CALM      29.91R
B. DE HUATULCO SUNNY     79  66  65 W12       29.94F
MINATITLAN     SUNNY     90  70  51 S23       29.74S HX  95
OAXACA         SUNNY     72  43  35 CALM      30.21S
PTO. ESCONDIDO SUNNY     81  66  61 S3        30.00R
TAPACHULA      SUNNY     88  75  66 NW5       29.87F HX  97
TUX. GUTIERREZ SUNNY     86  61  42 NE6       29.94F
VILLAHERMOSA   SUNNY     88  75  66 CALM      29.77F HX  97
ZIHUATANEJO      N/A    N/A N/A N/A MISG        N/A

YUCATAN PENINSULA

CITY           SKY/WX    TMP DP  RH WIND       PRES   REMARKS
CAMPECHE       SUNNY     88  77  70 E14G35    29.75S HX 100
CANCUN         MOSUNNY   84  77  79 E23       29.93R
CHETUMAL       PTSUNNY   86  77  74 SE24      29.85S HX  97
C. DEL CARMEN  PTSUNNY   86  73  66 SE15      29.77S
COZUMEL        PTSUNNY   84  75  74 S21       29.91R
MERIDA         PTSUNNY   86  72  62 SE22G36   29.83F

$$





USA.gov is the U.S. government's official web portal to all federal, state and local government web resources and services.